DELTA 1 DEB, 14905

Orbit data source: Space-Track

DELTA 1 DEB, 14905 is space debris in SSO originally from a launch on Thu, 29 Jul 1976 UTC launched from the Air Force Western Test Range (AFWTR). Debris objects in space refer to the collection of defunct objects orbiting the Earth. Examples of debris include non-operational satellites, rocket bodies, and fragments generated from explosions, collisions, or faulty payload assembly.

Loading next visibility...
Identifier
14905, 1976-077ET
Orbit
SSO
Country
Flag of USUS
Related business
Manufacturer
Unknown
Mission
Spacecraft
Bus & Motor
Unknown
Mass
Unknown
Launch date (UTC)
1976-07-29 (50 years ago)
Launch vehicle
Unknown
Launch site
Air Force Western Test Range (AFWTR)
Object type
Payload
Rocket body
Debris
Shape & HBR
Unknown shape, 0.1 m
Radar Cross Section
Small (<0.1 m²)

Expand to show TLE details & history
Last TLE update: 2 days ago

TLE from 2 days ago
0 DELTA 1 DEB
1 14905U 76077ET  26064.16465015  .00000187  00000-0  24593-2 0  9993
2 14905 102.2700 125.6706 0185122 189.4351 192.0987 12.07376610905801
Epoch: 2026-03-05T03:57Z
TLE epoch observation values (Epoch: 2026-03-05T03:57:05.772Z)
Latitude
20.60224°
Longitude
-101.18983°
Altitude
1,795.592 km
Speed
6.923 km/s
True Right ascension
08h 04m 00s
True Declination
20° 30' 13"
Sunlit
Object was in full shadow at epoch
Visualization orbit readout
Latitude
Unknown
Longitude
Unknown
Altitude
Unknown
Speed
Unknown
Apparent Right ascension
Unknown
Apparent Declination
Unknown
Sunlit
N/A
Visualization observer readout
Local Sidereal Time
07:13:41
Azimuth
Unknown
Elevation
Unknown
Doppler factor
Unknown
Orbital elements
Apogee altitude
1,794.172 km
Perigee altitude
1,497.097 km
Semi-major axis
8,023.771 km
Eccentricity
0.01851
Inclination
102.27°
RAAN
125.6706°
Arg. of periapsis
189.4351°
True anomaly
191.66392°
Mean anomaly
192.0987°
Eccentric anomaly
191.88034°
Mean motion
3.01978 °/min
Orbital period
119.21 mins
BSTAR
0.0024593
Loading maneuver chart data...
Computing Atmospheric mass density...
Loading historical data...
Loading historical data...
Loading historical data...
Loading historical data...
Loading historical data...
Loading historical data...
Loading historical data...

Documentation

Showing up to 5 results
|